Location: Mococo
(38.0255°N, 122.1161°W)
Time: 01:36:08
(UTC+00:00)

Cosmos 1484 Rocket - Pass Details

Date: 13 February 2026
Orbit: 436 x 464 km, 97.6° (Epoch: 13 March)

Event Time Altitude Azimuth Distance (km) Brightness Sun altitude
Rises 13:45:05 0° 19° (NNE) 2,514 6.4 -15.4°
Reaches altitude 10° 13:47:12 10° 26° (NNE) 1,633 5.5 -15.0°
Maximum altitude 13:50:34 44° 99° (E) 659 3.8 -14.4°
Drops below altitude 10° 13:53:54 10° 173° (S) 1,617 5.4 -13.7°
Sets 13:56:00 0° 180° (S) 2,485 6.3 -13.3°
